Location: Killam
(52.7910°N, 111.8608°W)
Time: 08:57:47
(UTC+00:00)

NOAA 15 - Pass Details

Date: 21 December 2025
Orbit: 794 x 809 km, 98.5° (Epoch: 25 January)

Event Time Altitude Azimuth Distance (km) Brightness Sun altitude
Rises 14:42:38 0° 17° (NNE) 3,316 7.7 -7.7°
Reaches altitude 10° 14:45:01 10° 21° (NNE) 2,380 7.0 -7.4°
Maximum altitude 14:50:13 60° 102° (ESE) 910 5.3 -6.7°
Drops below altitude 10° 14:55:22 10° 182° (S) 2,358 7.5 -6.0°
Sets 14:57:43 0° 186° (S) 3,283 8.1 -5.7°
